Regional Weather Roundup
Issued by NWS Grand Forks, ND

Home | Current Version | Previous Version | Graphics & Text | Print | Product List | Glossary On
Versions: 1 2 3 4 5 6 7 8 9 10 11 12 13 14 15 16 17 18 19 20 21 22 23 24 25 26 27 28 29 30 31 32 33 34 35 36 37 38 39 40 41 42 43 44 45 46 47 48 49 50
000
ASUS43 KFGF 200931
RWRFGF
PRAIRIE TO PINES  WEATHER ROUNDUP
NATIONAL WEATHER SERVICE EASTERN NORTH DAKOTA/GRAND FORKS ND
300 AM CST TUE FEB 20 2018

 **SATELLITE DATA USED TO AUGMENT SKY COVER AT AUTOMATED STATIONS**
 *****  WEATHER ACROSS EASTERN NORTH DAKOTA  *****

CITY           SKY/WX    TMP DP  RH WIND       PRES   REMARKS
GRAND FORKS    LGT SNOW   5   1  83 N14       30.12F FOG     WCI -12
GRAND FRKS AFB MOCLDY     3  -2  78 N13       30.11F BLWGSNOWWCI -14
GRAND FRKS NWS   N/A      4   1  89 N9        30.09F WCI -11
DEVILS LAKE    FLURRIES   2  -2  83 N10       30.09F WCI -14
FARGO          LGT SNOW   6   2  83 N20       30.03F FOG     WCI -14
WAHPETON ARPT  CLOUDY     9   3  78 N17       30.01R WCI -10
$$

 ***** WEATHER ACROSS CENTRAL AND WESTERN NORTH DAKOTA  *****

CITY           SKY/WX    TMP DP  RH WIND       PRES   REMARKS
BISMARCK       FLURRIES   4  -1  80 NW7       30.14R WCI  -8
MINOT          MOCLDY     2  -2  83 W6        30.11R WCI  -9
JAMESTOWN      CLOUDY     3  -1  83 N14       30.05R WCI -15
MINOT AFB      CLOUDY     4  -1  81 W6        30.11R WCI  -7
GARRISON         N/A      1  -2  87 NW8       30.09R WCI -13
WILLISTON      LGT SNOW   2  -3  80 W10       30.12F WCI -14
DICKINSON      LGT SNOW   1  -3  83 W6        30.03R FOG     WCI -10
HETTINGER      LGT SNOW   0  -5  79 NW9       30.01F WCI -15
$$

 *****  OTHER AIRPORT OBSERVATIONS IN OUR AREA  *****

CITY           SKY/WX    TMP DP  RH WIND       PRES   REMARKS
WALHALLA       FLURRIES   3  -2  78 N6        30.15F WCI  -8
GRAFTON AIRPOR FAIR       3  -2  78 N14       30.14F WCI -15
VALLEY CITY AR LGT RAIN   1   0  92 N13       30.05S WCI -16
CANDO          LGT SNOW   3   0  85 N6        30.10F WCI  -8
CAVALIER APRT  LGT SNOW   3  -4  72 N8        30.14F WCI -10
GWINNER          N/A      3   0  85 N17       30.02S FOG     WCI -17
SHEYENNE NWR     N/A      5   1  85 N12       29.95S WCI -11
ROLLA          CLOUDY     1  -2  85 N5        30.04F WCI  -8
 ***** THE ABOVE OBSERVATIONS ARE NON NWS ARE NOT QUALITY
       CONTROLLED AND MAY MIS-REPORT RAIN FOR SNOW...
$$

  *****  WEATHER ACROSS NORTHERN MINNESOTA  *****

CITY           SKY/WX    TMP DP  RH WIND       PRES   REMARKS
FLAG ISLAND    CLOUDY     3  -6  66 N10       30.11F WCI -12
WARROAD        FLURRIES   3   0  85 N9        30.10R WCI -11
ROSEAU         CLOUDY     7   1  78 N8        30.11S WCI  -6
HALLOCK        CLOUDY     3   0  85 N9        30.13F WCI -11
THF RVR FALLS  LGT SNOW   5   1  85 N13       30.06F FOG     WCI -12
BAUDETTE       LGT SNOW   4   0  83 N7        30.04F FOG     WCI  -8
WASKISH        LGT SNOW   5   1  85 NE10      30.01F WCI -10
CROOKSTON      LGT SNOW   5   1  85 N14       30.09F WCI -12
STEPHEN NDAWN    N/A      3   0  85 VRB12       N/A  WCI -13
GREENBUSH NDAW   N/A      3  -2  78 N10         N/A  WCI -12
$$
  *****  WEATHER ACROSS CENTRAL AND WEST MINNESOTA  *****

CITY           SKY/WX    TMP DP  RH WIND       PRES   REMARKS
FOSSTON        LGT SNOW   3   0  85 N13       30.00F WCI -14
BEMIDJI        LGT SNOW   6   2  85 N9        29.96F WCI  -8
PARK RAPIDS    LGT SNOW   7   2  80 N13       29.91F VSB 1   WCI  -9
ELBOW LAKE     LGT SNOW   9   6  88 N8        29.97R WCI  -3
WADENA         LGT SNOW   7   3  85 N10       29.90F VSB 1   WCI  -8
DETROIT LAKES  FLURRIES  10   5  79 N3        29.97S
MOORHEAD       LGT SNOW   5   1  85 N18       30.04R WCI -15
FERGUS FALLS   LGT SNOW   9   5  85 N6        29.99R WCI  -1
MORRIS MN      LGT SNOW  10   7  85 N12       29.95R VSB 3/4 WCI  -4
STAPLES        LGT SNOW   9   3  78 N8        29.90S WCI  -4
$$
  *****  WEATHER ELSEWHERE ACROSS MINNESOTA  *****

CITY           SKY/WX    TMP DP  RH WIND       PRES   REMARKS
DULUTH         LGT SNOW  14  11  87 NE10G18   29.88S VSB 1   WCI   1
INTRNTL FALLS  LGT SNOW   5   1  83 NE6       30.03F VSB 1   WCI  -6
ELY            LGT SNOW   3   0  85 CALM      29.95F
CLOQUET        LGT SNOW  14  10  85 N6        29.89R WCI   5
WHEATON        LGT SNOW   7   3  85 NW12      30.03R WCI  -9
BRAINERD       LGT SNOW  11   5  77 N15       29.89F WCI  -5
HIBBING        LGT SNOW   5   3  91 N10       29.93F FOG     WCI -10
ALEXANDRIA     LGT SNOW  10   6  84 N13       29.90S VSB 1   WCI  -5
SAINT CLOUD    CLOUDY    14  13  95 N9        29.87F FOG     WCI   2
MINNEAPOLIS    LGTSLEET  21  18  88 N6        29.84R FOG     WCI  13
$$

  *****  WEATHER ACROSS SOUTH DAKOTA  *****

CITY           SKY/WX    TMP DP  RH WIND       PRES   REMARKS
SIOUX FALLS    LGT SNOW  10   7  87 N8        29.90F FOG     WCI  -2
BROOKINGS      LGT SNOW   6   3  87 N12       29.91F VSB 3/4 WCI  -9
WATERTOWN      LGT SNOW   5   1  83 N14       29.89F FOG     WCI -12
HURON          LGT SNOW   3   0  87 N15       29.99F FOG     WCI -16
SISSETON         N/A      5   2  87 N16       29.99R WCI -14
ABERDEEN       LGT SNOW   5   0  79 N17       30.04R WCI -14
MITCHELL       LGT SNOW   6   2  83 NW16      30.00S FOG     WCI -12
PIERRE         LGT SNOW   3   0  87 N14       30.03S FOG     WCI -15
MOBRIDGE       CLOUDY     4  -2  76 N12       30.03R WCI -12
RAPID CITY     LGT SNOW  -2  -6  83 N14       29.98S FOG     WCI -21
$$

  *****  SOME WEATHER IN NEARBY STATES *****

CITY           SKY/WX    TMP DP  RH WIND       PRES   REMARKS
GLASGOW MT     CLOUDY    -4  -9  79 SW6       30.10F WCI -16
GREAT FALLS MT FAIR     -16 -20  82 SW13      29.96S WCI -38
CHEYENNE WY    FAIR      -5 -10  79 N6G16     29.71R WCI -18
SCOTTSBLUFF NE FLURRIES   1  -6  72 NW8       29.93R WCI -13
OMAHA NE       LGT SNOW  22  19  89 NW13      29.90S FOG     WCI  10
DES MOINES IA  FRZ DRZL  29  27  92 W8        29.83R WCI  21
DAVENPORT IA   RAIN      38  36  92 S6        29.80S FOG
CHICAGO IL     HVY RAIN  60  57  89 SW13      29.81S FOG
EAU CLAIRE WI  CLOUDY    21  19  92 VRB3      29.82S
LA CROSSE WI   CLOUDY    31  29  92 CALM      29.80S
$$

  *****  SOME NATIONAL WEATHER *****

CITY           SKY/WX    TMP DP  RH WIND       PRES   REMARKS
LA GUARDIA NY  CLOUDY    51  48  89 SW10G18   30.28F
RALEIGH NC     FOG       51  51 100 CALM      30.41S VSB 1/4
ATLANTA GA     MOCLDY    58  58 100 E6        30.33S
NEW ORLEANS LA FAIR      70  68  93 SE10      30.12F
OKLAHOMA CITY  CLOUDY    68  62  81 S23G33    29.74R
ALBUQUERQUE NM FLURRIES  32  21  64 N17       29.83R WCI  21
SALT LAKE CITY MOCLDY    20  16  84 N8        29.88R WCI  10
LOS ANGELES CA FAIR      49  18  29 NW10      30.07S
BOISE ID       NOT AVBL
SEATTLE WA     MOCLDY    29  17  61 SE10      30.20S WCI  20
$$

*** WEATHER ACROSS MANITOBA...SASKATCHEWAN AND ONTARIO ***
                ***ONTARIO***

CITY           SKY/WX    TMP DP  RH WIND       PRES   REMARKS
GERALDTON      FLURRIES  -8 -15  71 NE14G21   30.20F WCI -28
THUNDER BAY    FLURRIES   5   0  78 NE9       30.07F WCI  -9
SIOUX LOOKOUT  CLOUDY    -2 -11  65 VRB2      30.14F
TORONTO        FOG       37  37 100 CALM      30.00S VSB 1/8
BIG TROUT LK   CLEAR    -24 -33  62 SE3       30.34F
PICKLE LAKE    NOT AVBL
DRYDEN         FLURRIES   0  -9  65 NE13      30.06F WCI -18
KENORA         CLOUDY     1  -9  60 NE8       30.09F WCI -12
$$
                *** MANITOBA***

CITY           SKY/WX    TMP DP  RH WIND       PRES   REMARKS
BRANDON        FLURRIES   1  -4  78 NW5       30.12F WCI  -8
DAUPHIN        PTCLDY     1  -6  71 SW8       30.15F WCI -12
ISLAND LAKE    NOT AVBL
PILOT MOUND      N/A      1  -2  85 NW3         N/A
THE PAS        CLEAR    -11 -17  77 S5        30.01F WCI -23
THOMPSON       MOCLDY   -11 -18  70 S3        30.08S
WINNIPEG       LGT SNOW   1  -8  66 N2        30.18F
LYNN LAKE      PTCLDY   -15 -18  84 VRB2      29.92R
CHURCHILL      PTCLDY   -22 -29  69 E9        30.34R WCI -42
GILLAM         CLEAR    -17 -24  70 SE7       30.22F WCI -33
$$
                ***SASKATCHEWAN***

CITY           SKY/WX    TMP DP  RH WIND       PRES   REMARKS
ESTEVAN        CLOUDY     0  -6  78 W6        30.10F WCI -12
KINDERSLEY     CLOUDY     0  -8  71 W14G20    29.95F WCI -19
LLOYDMINSTER   PTCLDY     3  -4  72 W13       29.86S WCI -14
PRINCE ALBERT  MOCLDY   -11 -17  77 SW5       29.96  WCI -23
REGINA         MOCLDY   -11 -17  77 SW12      30.05F WCI -31
YORKTON        PTCLDY    -8 -13  77 SW12      30.03F WCI -27
N. BATTLEFORD  CLOUDY     5  -4  66 S8        29.93F WCI  -8
LA RONGE       FLURRIES   1  -4  78 S6        29.87S WCI -10
SASKATOON      FLURRIES  -2  -8  78 SW12      29.97F WCI -20
SWIFT CURRENT  CLEAR     -9 -17  70 W12       29.96F WCI -29
$$
NOTE: THESE ARE AUTOMATED STATIONS WITH LIMITED QUALITY CONTROL
      "FAIR" INDICATES FEW OR NO CLOUDS BELOW 12,000 FEET WITH NO
      SIGNIFICANT WEATHER AND/OR OBSTRUCTIONS TO VISIBILITY.
      SKY/WX - SKY CONDITION AND SIGNIFICANT WEATHER.
      TMP - AIR TEMPERATURE.    DP   - DEWPOINT TEMPERATURE.
      RH  - RELATIVE HUMIDITY.  PRES - PRESSURE.
      HX  - HEAT INDEX.         WCI  - WIND CHILL INDEX.
$



USA.gov is the U.S. government's official web portal to all federal, state and local government web resources and services.